timestamp,surface_pressure_avg,surface_temp_avg,battery_voltage,lat,long
2020-04-24 00:09:01+00:00,371.3062,3.3,13.29,47.84626,-54.09684
2020-04-24 00:19:01+00:00,370.61800000000005,3.33,12.97,47.84626,-54.09684
2020-04-24 00:29:01+00:00,365.3297,3.32,12.97,47.84626,-54.09684
2020-04-24 00:39:01+00:00,366.6912,3.22,12.97,47.84626,-54.09684
2020-04-24 00:49:01+00:00,368.5612,3.2,12.97,47.84626,-54.09684
2020-04-24 00:59:01+00:00,362.2396,3.3,12.97,47.84626,-54.09684
2020-04-24 01:09:01+00:00,358.2363,3.3,12.97,47.84626,-54.09684
2020-04-24 01:19:01+00:00,358.5513,3.28,12.73,47.84626,-54.09684
2020-04-24 01:29:01+00:00,356.8279,3.18,12.73,47.84626,-54.09684
2020-04-24 01:39:01+00:00,348.728,3.2,12.73,47.84626,-54.09684
2020-04-24 01:49:01+00:00,344.48800000000006,3.2,12.73,47.84626,-54.09684
2020-04-24 01:59:01+00:00,342.9012,3.2,12.73,47.84626,-54.09684
2020-04-24 02:09:01+00:00,336.0963,3.29,12.73,47.84626,-54.09684
2020-04-24 02:19:01+00:00,332.4696,3.3,12.65,47.84626,-54.09684
2020-04-24 02:29:01+00:00,326.2697,3.3,12.65,47.84626,-54.09684
2020-04-24 02:39:01+00:00,319.938,3.3,12.65,47.84626,-54.09684
2020-04-24 02:49:01+00:00,310.7963,3.3,12.65,47.84626,-54.09684
2020-04-24 02:59:01+00:00,302.9415,3.3,12.65,47.84626,-54.09684
2020-04-24 03:09:01+00:00,299.8013,3.37,12.65,47.84626,-54.09684
2020-04-24 03:19:01+00:00,293.6014,3.4,12.65,47.84626,-54.09684
2020-04-24 03:29:01+00:00,282.6464,3.4,12.65,47.84626,-54.09684
2020-04-24 03:39:01+00:00,272.3947,3.4,12.65,47.84626,-54.09684
2020-04-24 03:49:01+00:00,264.2881,3.4,12.65,47.84626,-54.09684
2020-04-24 03:59:01+00:00,257.0048,3.4,12.65,47.84626,-54.09684
2020-04-24 04:09:01+00:00,249.4881,3.4,12.65,47.84626,-54.09684
2020-04-24 04:19:01+00:00,238.8831,3.4,12.65,47.84626,-54.09684
2020-04-24 04:29:01+00:00,227.1198,3.45,12.65,47.84626,-54.09684
2020-04-24 04:39:01+00:00,222.5931,3.48,12.65,47.84626,-54.09684
2020-04-24 04:49:01+00:00,217.3781,3.4,12.65,47.84626,-54.09684
2020-04-24 04:59:01+00:00,207.0598,3.4,12.65,47.84626,-54.09684
2020-04-24 05:09:01+00:00,202.1448,3.4,12.65,47.84626,-54.09684
2020-04-24 05:19:01+00:00,201.5614,3.4,12.57,47.84626,-54.09684
2020-04-24 05:29:01+00:00,195.3465,3.4,12.57,47.84626,-54.09684
2020-04-24 05:39:01+00:00,188.1214,3.4,12.57,47.84626,-54.09684
2020-04-24 05:49:01+00:00,184.1448,3.4,12.57,47.84626,-54.09684
2020-04-24 05:59:01+00:00,179.6098,3.4,12.57,47.84626,-54.09684
2020-04-24 06:09:01+00:00,175.1798,3.4,12.57,47.84626,-54.09684
2020-04-24 06:19:01+00:00,173.7165,3.4,12.57,47.84626,-54.09684
2020-04-24 06:29:01+00:00,174.1065,3.4,12.57,47.84626,-54.09684
2020-04-24 06:39:01+00:00,176.9965,3.4,12.57,47.84626,-54.09684
2020-04-24 06:49:01+00:00,179.8448,3.4,12.57,47.84626,-54.09684
2020-04-24 06:59:01+00:00,181.3165,3.4,12.57,47.84626,-54.09684
2020-04-24 07:09:01+00:00,182.7898,3.4,12.57,47.84626,-54.09684
2020-04-24 07:19:01+00:00,188.4515,3.38,12.57,47.84626,-54.09684
2020-04-24 07:29:01+00:00,196.0848,3.31,12.57,47.84626,-54.09684
2020-04-24 07:39:01+00:00,199.9047,3.3,12.57,47.84626,-54.09684
2020-04-24 07:49:01+00:00,202.6998,3.36,12.57,47.84626,-54.09684
2020-04-24 07:59:01+00:00,211.8864,3.34,12.57,47.84626,-54.09684
2020-04-24 08:09:01+00:00,220.9464,3.32,12.57,47.84626,-54.09684
2020-04-24 08:19:01+00:00,221.7397,3.32,12.57,47.84626,-54.09684
2020-04-24 08:29:01+00:00,226.6531,3.33,12.57,47.84626,-54.09684
2020-04-24 08:39:01+00:00,234.8048,3.4,12.57,47.84626,-54.09684
2020-04-24 08:49:01+00:00,232.6081,3.4,12.57,47.84626,-54.09684
2020-04-24 08:59:01+00:00,230.8497,3.4,12.57,47.84626,-54.09684
2020-04-24 09:09:01+00:00,240.28799999999998,3.4,12.57,47.84626,-54.09684
2020-04-24 09:19:01+00:00,246.6265,3.4,12.49,47.84626,-54.09684
2020-04-24 09:29:01+00:00,245.1831,3.4,12.49,47.84626,-54.09684
2020-04-24 09:39:01+00:00,247.9031,3.4,12.49,47.84626,-54.09684
2020-04-24 09:49:01+00:00,258.1297,3.4,12.49,47.84626,-54.09684
2020-04-24 09:59:01+00:00,264.0797,3.4,12.49,47.84626,-54.09684
2020-04-24 10:09:01+00:00,266.8197,3.4,12.49,47.84626,-54.09684
2020-04-24 10:19:01+00:00,272.1381,3.4,12.89,47.84626,-54.09684
2020-04-24 10:29:01+00:00,279.8414,3.4,12.89,47.84626,-54.09684
2020-04-24 10:39:01+00:00,284.7114,3.4,12.89,47.84626,-54.09684
2020-04-24 10:49:01+00:00,291.1163,3.4,12.89,47.84626,-54.09684
2020-04-24 10:59:01+00:00,299.6514,3.4,12.89,47.84626,-54.09684
2020-04-24 11:09:01+00:00,307.5731,3.39,12.89,47.84626,-54.09684
2020-04-24 11:19:01+00:00,311.578,3.4,14.0,47.84626,-54.09684
2020-04-24 11:29:01+00:00,317.6013,3.4,14.0,47.84626,-54.09684
2020-04-24 11:39:01+00:00,327.473,3.4,14.0,47.84626,-54.09684
2020-04-24 11:49:01+00:00,331.2247,3.4,14.0,47.84626,-54.09684
2020-04-24 11:59:01+00:00,333.1364,3.4,14.0,47.84626,-54.09684
2020-04-24 12:09:01+00:00,336.8697,3.38,14.0,47.84626,-54.09684
2020-04-24 12:19:01+00:00,339.8229,3.4,14.0,47.84626,-54.09684
2020-04-24 12:29:01+00:00,339.2796,3.4,14.0,47.84626,-54.09684
2020-04-24 12:39:01+00:00,338.9563,3.4,14.0,47.84626,-54.09684
2020-04-24 12:49:01+00:00,339.048,3.35,14.0,47.84626,-54.09684
2020-04-24 12:59:01+00:00,336.2047,3.39,14.0,47.84626,-54.09684
2020-04-24 13:09:01+00:00,331.4714,3.4,14.0,47.84626,-54.09684
2020-04-24 13:19:01+00:00,333.3347,3.4,14.08,47.84626,-54.09684
2020-04-24 13:29:01+00:00,331.9079,3.4,14.08,47.84626,-54.09684
2020-04-24 13:39:01+00:00,326.0179,3.4,14.08,47.84626,-54.09684
2020-04-24 13:49:01+00:00,321.7496,3.4,14.08,47.84626,-54.09684
2020-04-24 13:59:01+00:00,323.9496,3.4,14.08,47.84626,-54.09684
2020-04-24 14:09:01+00:00,322.1497,3.4,14.08,47.84626,-54.09684
2020-04-24 14:19:01+00:00,318.603,3.42,14.24,47.84626,-54.09684
2020-04-24 14:29:01+00:00,317.343,3.43,14.24,47.84626,-54.09684
2020-04-24 14:39:01+00:00,311.3964,3.44,14.24,47.84626,-54.09684
2020-04-24 14:49:01+00:00,302.6397,3.46,14.24,47.84626,-54.09684
2020-04-24 14:59:01+00:00,300.5914,3.47,14.24,47.84626,-54.09684
2020-04-24 15:09:01+00:00,296.5081,3.45,14.24,47.84626,-54.09684
2020-04-24 15:19:01+00:00,284.8047,3.47,14.16,47.84626,-54.09684
2020-04-24 15:29:01+00:00,275.6381,3.48,14.16,47.84626,-54.09684
2020-04-24 15:39:01+00:00,273.828,3.47,14.16,47.84626,-54.09684
2020-04-24 15:49:01+00:00,268.7347,3.47,14.16,47.84626,-54.09684
2020-04-24 15:59:01+00:00,256.2064,3.46,14.16,47.84626,-54.09684
2020-04-24 16:09:01+00:00,246.7864,3.46,14.16,47.84626,-54.09684
2020-04-24 16:19:01+00:00,241.5314,3.45,14.48,47.84626,-54.09684
2020-04-24 16:29:01+00:00,232.9314,3.4,14.48,47.84626,-54.09684
2020-04-24 16:39:01+00:00,221.4297,3.41,14.48,47.84626,-54.09684
2020-04-24 16:49:01+00:00,216.2031,3.45,14.48,47.84626,-54.09684
2020-04-24 16:59:01+00:00,212.9915,3.44,14.48,47.84626,-54.09684
2020-04-24 17:09:01+00:00,204.9615,3.44,14.48,47.84626,-54.09684
2020-04-24 17:19:01+00:00,198.1548,3.49,14.32,47.84626,-54.09684
2020-04-24 17:29:01+00:00,196.1565,3.5,14.32,47.84626,-54.09684
2020-04-24 17:39:01+00:00,195.3748,3.5,14.32,47.84626,-54.09684
2020-04-24 17:49:01+00:00,192.1381,3.5,14.32,47.84626,-54.09684
2020-04-24 17:59:01+00:00,189.4348,3.5,14.32,47.84626,-54.09684
2020-04-24 18:09:01+00:00,190.2515,3.5,14.32,47.84626,-54.09684
2020-04-24 18:19:01+00:00,189.0798,3.48,14.4,47.84626,-54.09684
2020-04-24 18:29:01+00:00,187.5698,3.45,14.4,47.84626,-54.09684
2020-04-24 18:39:01+00:00,189.3431,3.41,14.4,47.84626,-54.09684
2020-04-24 18:49:01+00:00,191.2465,3.5,14.4,47.84626,-54.09684
2020-04-24 18:59:01+00:00,189.6448,3.6,14.4,47.84626,-54.09684
2020-04-24 19:09:01+00:00,191.1215,3.68,14.4,47.84626,-54.09684
2020-04-24 19:19:01+00:00,197.8281,3.67,14.08,47.84626,-54.09684
2020-04-24 19:29:01+00:00,203.5448,3.63,14.08,47.84626,-54.09684
2020-04-24 19:39:01+00:00,206.3214,3.6,14.08,47.84626,-54.09684
2020-04-24 19:49:01+00:00,210.2415,3.6,14.08,47.84626,-54.09684
2020-04-24 19:59:01+00:00,217.1681,3.6,14.08,47.84626,-54.09684
2020-04-24 20:09:01+00:00,223.2264,3.6,14.08,47.84626,-54.09684
2020-04-24 20:19:01+00:00,229.8748,3.61,14.0,47.84626,-54.09684
2020-04-24 20:29:01+00:00,233.9681,3.6,14.0,47.84626,-54.09684
2020-04-24 20:39:01+00:00,239.3064,3.6,14.0,47.84626,-54.09684
2020-04-24 20:49:01+00:00,246.4014,3.6,14.0,47.84626,-54.09684
2020-04-24 20:59:01+00:00,252.6531,3.6,14.0,47.84626,-54.09684
2020-04-24 21:09:01+00:00,257.3148,3.6,14.0,47.84626,-54.09684
2020-04-24 21:19:01+00:00,263.4031,3.6,13.84,47.84626,-54.09684
2020-04-24 21:29:01+00:00,269.6014,3.6,13.84,47.84626,-54.09684
2020-04-24 21:39:01+00:00,274.4515,3.59,13.84,47.84626,-54.09684
2020-04-24 21:49:01+00:00,278.0515,3.57,13.84,47.84626,-54.09684
2020-04-24 21:59:01+00:00,284.8914,3.54,13.84,47.84626,-54.09684
2020-04-24 22:09:01+00:00,290.973,3.5,13.84,47.84626,-54.09684
2020-04-24 22:19:01+00:00,294.7247,3.5,13.6,47.84626,-54.09684
2020-04-24 22:29:01+00:00,297.1447,3.5,13.6,47.84626,-54.09684
2020-04-24 22:39:01+00:00,305.263,3.5,13.6,47.84626,-54.09684
2020-04-24 22:49:01+00:00,313.9464,3.5,13.6,47.84626,-54.09684
2020-04-24 22:59:01+00:00,320.1514,3.5,13.6,47.84626,-54.09684
2020-04-24 23:09:01+00:00,323.5596,3.5,13.6,47.84626,-54.09684
2020-04-24 23:19:01+00:00,332.4196,3.5,13.21,47.84626,-54.09684
2020-04-24 23:29:01+00:00,339.6213,3.49,13.21,47.84626,-54.09684
2020-04-24 23:39:01+00:00,342.0630000000001,3.47,13.21,47.84626,-54.09684
2020-04-24 23:49:01+00:00,345.3314,3.4,13.21,47.84626,-54.09684
2020-04-24 23:59:01+00:00,352.61300000000006,3.4,13.21,47.84626,-54.09684
